When you browse on this site, cookies collect data to enhance your experience and personalize the content and advertising you see.
Visit our Privacy Policy to learn more. By continuing to use the site, you agree to this use of cookies and data.
  • în România
  • Lista ţărilor
  • Pe 7 zile
  • Temperatura apei
  • Hartă satelitară
  • Meteo pe hartă
  • Widget-uri
  • user-avatar
    Intrare

    Meteo pe oră la Korçe

    Astăzi, 27 Martie, Miercuri

    Timp Temperatura Precipitaţii Vânt Presiune Umiditate
    00:00 +5°C° 0 mm 2 m/s 665 mmHg 80%
    01:00 +4°C° 0 mm 2 m/s 665 mmHg 79%
    02:00 +4°C° 0.1 mm 2 m/s 665 mmHg 79%
    03:00 +4°C° 0.1 mm 2 m/s 665 mmHg 78%
    04:00 +3°C° 0.1 mm 2 m/s 666 mmHg 77%
    05:00 +4°C° 0.1 mm 2 m/s 666 mmHg 76%
    06:00 +4°C° 0.1 mm 2 m/s 666 mmHg 74%
    07:00 +4°C° 0.1 mm 2 m/s 666 mmHg 72%
    08:00 +5°C° 0 mm 2 m/s 667 mmHg 67%
    09:00 +7°C° 0 mm 2 m/s 667 mmHg 61%
    10:00 +9°C° 0 mm 2 m/s 668 mmHg 56%
    11:00 +10°C° 0 mm 2 m/s 668 mmHg 54%
    12:00 +10°C° 0 mm 2 m/s 668 mmHg 51%
    13:00 +11°C° 0 mm 3 m/s 668 mmHg 49%
    14:00 +12°C° 0.3 mm 2 m/s 668 mmHg 53%
    15:00 +10°C° 0.3 mm 2 m/s 668 mmHg 57%
    16:00 +9°C° 0.3 mm 2 m/s 667 mmHg 62%
    17:00 +8°C° 0.4 mm 2 m/s 667 mmHg 68%
    18:00 +7°C° 0.4 mm 2 m/s 667 mmHg 74%
    19:00 +6°C° 0.4 mm 2 m/s 667 mmHg 80%
    20:00 +6°C° 0.6 mm 2 m/s 667 mmHg 81%
    21:00 +6°C° 0.6 mm 2 m/s 667 mmHg 82%
    22:00 +6°C° 0.6 mm 2 m/s 668 mmHg 83%
    23:00 +5°C° 0.3 mm 2 m/s 668 mmHg 81%

    Mâine, 28 Martie, Joi

    Timp Temperatura Precipitaţii Vânt Presiune Umiditate
    00:00 +5°C° 0.3 mm 2 m/s 667 mmHg 80%
    01:00 +3°C° 0.3 mm 3 m/s 667 mmHg 79%
    02:00 +3°C° 0 mm 3 m/s 667 mmHg 77%
    03:00 +2°C° 0 mm 3 m/s 667 mmHg 75%
    04:00 +2°C° 0 mm 3 m/s 666 mmHg 73%
    05:00 +2°C° 0.1 mm 3 m/s 667 mmHg 73%
    06:00 +2°C° 0.1 mm 3 m/s 667 mmHg 73%
    07:00 +2°C° 0.1 mm 3 m/s 667 mmHg 74%
    08:00 +3°C° 0.1 mm 4 m/s 667 mmHg 72%
    09:00 +4°C° 0.1 mm 4 m/s 667 mmHg 71%
    10:00 +4°C° 0.1 mm 4 m/s 668 mmHg 69%
    11:00 +5°C° 0 mm 4 m/s 668 mmHg 68%
    12:00 +5°C° 0 mm 4 m/s 668 mmHg 66%
    13:00 +6°C° 0 mm 4 m/s 668 mmHg 64%
    14:00 +6°C° 0 mm 4 m/s 668 mmHg 64%
    15:00 +5°C° 0 mm 4 m/s 668 mmHg 64%
    16:00 +5°C° 0 mm 4 m/s 667 mmHg 64%
    17:00 +4°C° 0 mm 4 m/s 667 mmHg 68%
    18:00 +3°C° 0 mm 3 m/s 667 mmHg 73%
    19:00 +2°C° 0 mm 3 m/s 667 mmHg 77%
    20:00 +2°C° 0 mm 3 m/s 667 mmHg 79%
    21:00 +2°C° 0 mm 2 m/s 667 mmHg 81%
    22:00 +2°C° 0 mm 2 m/s 668 mmHg 83%
    23:00 +1°C° 0 mm 2 m/s 668 mmHg 84%

    Poimâine, 29 Martie, Vineri

    Timp Temperatura Precipitaţii Vânt Presiune Umiditate
    00:00 +1°C° 0 mm 2 m/s 668 mmHg 85%
    01:00 +1°C° 0 mm 2 m/s 668 mmHg 86%
    02:00 +1°C° 0 mm 2 m/s 668 mmHg 86%
    03:00 +1°C° 0 mm 2 m/s 668 mmHg 86%
    04:00 -1°C° 0 mm 2 m/s 668 mmHg 85%
    05:00 0°C° 0 mm 3 m/s 668 mmHg 80%
    06:00 +1°C° 0 mm 3 m/s 669 mmHg 74%
    07:00 +1°C° 0 mm 3 m/s 669 mmHg 69%
    08:00 +2°C° 0 mm 3 m/s 670 mmHg 61%
    09:00 +3°C° 0 mm 3 m/s 670 mmHg 54%
    10:00 +4°C° 0 mm 4 m/s 670 mmHg 46%
    11:00 +5°C° 0 mm 3 m/s 670 mmHg 46%
    12:00 +5°C° 0 mm 3 m/s 670 mmHg 47%
    13:00 +5°C° 0 mm 3 m/s 670 mmHg 48%
    14:00 +5°C° 0 mm 3 m/s 669 mmHg 47%
    15:00 +5°C° 0 mm 3 m/s 669 mmHg 46%
    16:00 +5°C° 0 mm 3 m/s 669 mmHg 45%
    17:00 +4°C° 0 mm 3 m/s 668 mmHg 49%
    18:00 +3°C° 0 mm 3 m/s 668 mmHg 54%
    19:00 +3°C° 0 mm 2 m/s 668 mmHg 58%
    20:00 +2°C° 0 mm 2 m/s 668 mmHg 60%
    21:00 +2°C° 0 mm 2 m/s 668 mmHg 62%
    22:00 +1°C° 0 mm 2 m/s 669 mmHg 63%
    23:00 +1°C° 0 mm 2 m/s 669 mmHg 64%

    30 Martie, Sâmbătă

    Timp Temperatura Precipitaţii Vânt Presiune Umiditate
    00:00 -1°C° 0 mm 2 m/s 668 mmHg 65%
    01:00 -1°C° 0 mm 2 m/s 668 mmHg 66%
    02:00 -1°C° 0 mm 2 m/s 668 mmHg 67%
    03:00 -2°C° 0 mm 2 m/s 668 mmHg 67%
    04:00 -2°C° 0 mm 2 m/s 668 mmHg 68%
    05:00 -1°C° 0 mm 2 m/s 668 mmHg 64%
    06:00 +1°C° 0 mm 2 m/s 668 mmHg 60%
    07:00 +2°C° 0 mm 2 m/s 669 mmHg 56%
    08:00 +3°C° 0 mm 2 m/s 669 mmHg 49%
    09:00 +4°C° 0 mm 3 m/s 669 mmHg 43%
    10:00 +5°C° 0 mm 3 m/s 669 mmHg 36%
    11:00 +7°C° 0 mm 3 m/s 669 mmHg 35%
    12:00 +8°C° 0 mm 3 m/s 669 mmHg 34%
    13:00 +9°C° 0 mm 3 m/s 669 mmHg 33%
    14:00 +9°C° 0 mm 3 m/s 668 mmHg 34%
    15:00 +9°C° 0 mm 3 m/s 668 mmHg 36%
    16:00 +8°C° 0 mm 4 m/s 668 mmHg 37%
    17:00 +7°C° 0 mm 3 m/s 667 mmHg 42%
    18:00 +4°C° 0 mm 3 m/s 667 mmHg 48%
    19:00 +4°C° 0 mm 2 m/s 667 mmHg 53%
    20:00 +3°C° 0 mm 2 m/s 667 mmHg 54%
    21:00 +3°C° 0 mm 2 m/s 667 mmHg 55%
    22:00 +2°C° 0 mm 2 m/s 667 mmHg 57%
    23:00 +2°C° 0 mm 2 m/s 667 mmHg 59%

    31 Martie, Duminică

    Timp Temperatura Precipitaţii Vânt Presiune Umiditate
    00:00 +2°C° 0 mm 2 m/s 666 mmHg 61%
    01:00 +2°C° 0 mm 2 m/s 666 mmHg 62%
    02:00 +1°C° 0 mm 2 m/s 666 mmHg 64%
    03:00 +1°C° 0 mm 2 m/s 666 mmHg 65%
    04:00 +1°C° 0 mm 2 m/s 665 mmHg 66%
    05:00 +2°C° 0 mm 2 m/s 666 mmHg 63%
    06:00 +3°C° 0 mm 2 m/s 666 mmHg 60%
    07:00 +4°C° 0 mm 2 m/s 666 mmHg 56%
    08:00 +6°C° 0 mm 2 m/s 667 mmHg 50%
    09:00 +8°C° 0 mm 2 m/s 667 mmHg 43%
    10:00 +9°C° 0 mm 2 m/s 667 mmHg 36%
    11:00 +10°C° 0 mm 2 m/s 667 mmHg 36%
    12:00 +12°C° 0 mm 2 m/s 667 mmHg 35%
    13:00 +12°C° 0 mm 2 m/s 666 mmHg 35%
    14:00 +11°C° 0 mm 3 m/s 666 mmHg 37%
    15:00 +11°C° 0 mm 3 m/s 666 mmHg 40%
    16:00 +11°C° 0 mm 4 m/s 665 mmHg 42%
    17:00 +9°C° 0 mm 3 m/s 665 mmHg 51%
    18:00 +7°C° 0 mm 2 m/s 665 mmHg 60%
    19:00 +5°C° 0 mm 2 m/s 664 mmHg 68%
    20:00 +6°C° 0 mm 1 m/s 664 mmHg 69%
    21:00 +6°C° 0 mm 1 m/s 664 mmHg 70%
    22:00 +5°C° 0 mm 1 m/s 665 mmHg 71%
    23:00 +5°C° 0 mm 1 m/s 664 mmHg 72%

    1 Aprilie, Luni

    Timp Temperatura Precipitaţii Vânt Presiune Umiditate
    00:00 +5°C° 0 mm 1 m/s 664 mmHg 73%
    01:00 +4°C° 0 mm 1 m/s 664 mmHg 74%
    02:00 +4°C° 0 mm 1 m/s 664 mmHg 75%
    03:00 +4°C° 0 mm 1 m/s 664 mmHg 76%
    04:00 +4°C° 0 mm 1 m/s 664 mmHg 77%
    05:00 +5°C° 0 mm 1 m/s 664 mmHg 73%
    06:00 +6°C° 0 mm 1 m/s 665 mmHg 70%
    07:00 +7°C° 0 mm 1 m/s 665 mmHg 66%
    08:00 +9°C° 0 mm 1 m/s 665 mmHg 58%
    09:00 +11°C° 0 mm 1 m/s 666 mmHg 50%
    10:00 +13°C° 0 mm 2 m/s 666 mmHg 41%
    11:00 +13°C° 0 mm 2 m/s 666 mmHg 39%
    12:00 +14°C° 0 mm 2 m/s 666 mmHg 36%
    13:00 +15°C° 0 mm 2 m/s 666 mmHg 34%
    14:00 +14°C° 0 mm 2 m/s 666 mmHg 38%
    15:00 +14°C° 0 mm 2 m/s 665 mmHg 42%
    16:00 +13°C° 0 mm 2 m/s 665 mmHg 46%
    17:00 +12°C° 0.1 mm 2 m/s 665 mmHg 56%
    18:00 +9°C° 0.1 mm 2 m/s 664 mmHg 67%
    19:00 +8°C° 0.1 mm 1 m/s 664 mmHg 78%
    20:00 +8°C° 0 mm 1 m/s 664 mmHg 78%
    21:00 +7°C° 0 mm 1 m/s 665 mmHg 78%
    22:00 +7°C° 0 mm 1 m/s 665 mmHg 78%
    23:00 +7°C° 0 mm 1 m/s 665 mmHg 78%
    Arată mai mult